Location: Muenchen
(48.1800°N, 11.5800°E)
Time: 09:23:48
(UTC+02:00)

Tiros 1 - Visible Passes

Search period start: 26 April 2018 00:00
Search period end: 06 May 2018 00:00
Orbit: 631 x 664 km, 48.4° (Epoch: 25 April)

Date Brightness Start Highest point End Pass type
(mag) Time Alt. Az. Time Alt. Az. Time Alt. Az.
26 Apr 7.6 21:53:37 10° W 21:58:04 48° SSW 22:00:26 25° SE visible
26 Apr 9.5 23:37:06 10° WSW 23:38:05 12° WSW 23:38:05 12° WSW visible
27 Apr 8.4 22:20:01 10° W 22:23:58 28° SW 22:25:22 24° S visible
28 Apr 7.6 21:03:45 10° W 21:08:14 50° SSW 21:12:40 10° SE visible
28 Apr 9.1 22:47:03 10° WSW 22:49:41 15° SW 22:50:20 15° SSW visible
29 Apr 8.4 21:30:07 10° W 21:34:09 30° SW 21:37:42 12° SSE visible
30 Apr 9.2 21:57:02 10° W 21:59:52 16° SW 22:02:42 10° S visible
02 May 9.3 21:07:03 10° W 21:10:05 17° SW 21:13:06 10° S visible
